Location: Newark
(21.1200°N, 73.4000°E)
Time: 12:52:49
(UTC+00:00)

N. Korean satellite - Visible Passes

Search period start: 14 December 2019 00:00
Search period end: 24 December 2019 00:00
Orbit: 455 x 507 km, 97.2° (Epoch: 13 December)

Date Brightness Start Highest point End Pass type
(mag) Time Alt. Az. Time Alt. Az. Time Alt. Az.
14 Dec 8.7 00:17:53 10° NE 00:20:52 27° E 00:23:49 10° SSE visible
14 Dec 10.0 23:54:20 10° ENE 23:55:22 11° E 23:56:24 10° ESE visible
15 Dec 10.4 13:26:04 10° WSW 13:26:55 11° W 13:27:45 10° W visible
16 Dec 6.6 00:59:58 10° N 01:03:17 50° WNW 01:06:36 10° SSW visible
16 Dec 9.3 12:58:20 10° SSW 13:01:26 25° W 13:04:31 10° NW visible
17 Dec 7.2 00:34:32 10° NNE 00:37:54 54° E 00:41:14 10° S visible
18 Dec 9.3 00:09:49 10° NE 00:12:26 20° E 00:15:02 10° SSE visible
19 Dec 10.0 13:16:31 10° SW 13:18:30 14° W 13:20:30 10° WNW visible
20 Dec 6.3 00:51:29 10° N 00:54:53 72° WNW 00:58:17 10° SSW visible
20 Dec 8.7 12:49:41 10° SSW 12:53:02 33° W 12:56:22 10° NNW visible
21 Dec 8.0 00:26:16 10° NNE 00:29:28 38° E 00:32:40 10° S visible
22 Dec 9.7 00:01:55 10° ENE 00:04:00 15° E 00:06:04 10° SE visible
23 Dec 7.0 01:08:42 10° N 01:11:51 35° WNW 01:14:58 10° SW visible
23 Dec 9.7 13:07:30 10° SW 13:10:05 18° W 13:12:40 10° NW visible
